| time (UTC) | temp F | wind direction | speed knots | gust knots | rain 1hr in | rain 24hr in | rain mn in | humidity % | barometer mb |
| 20260506201010 | 37 | 67 | 7.0 | 7.0 | 0.00 | 0.00 | 0.00 | 75 | 1011.0 |
| 20260506200506 | 38 | 78 | 4.3 | 4.3 | 0.00 | 0.00 | 0.00 | 74 | 1011.1 |
| 20260506200003 | 38 | 73 | 4.3 | 5.2 | 0.00 | 0.00 | 0.00 | 73 | 1010.9 |
| 20260506195500 | 39 | 83 | 2.6 | 2.6 | 0.00 | 0.00 | 0.00 | 72 | 1010.9 |
| 20260506194956 | 39 | 73 | 3.5 | 4.3 | 0.00 | 0.00 | 0.00 | 72 | 1010.9 |
| 20260506194454 | 39 | 104 | 3.5 | 3.5 | 0.00 | 0.00 | 0.00 | 72 | 1010.7 |
| 20260506193950 | 39 | 60 | 2.6 | 4.3 | 0.00 | 0.00 | 0.00 | 72 | 1011.0 |
| 20260506193448 | 40 | 71 | 1.7 | 3.5 | 0.00 | 0.00 | 0.00 | 72 | 1011.0 |
| 20260506192944 | 40 | 110 | 2.6 | 6.1 | 0.00 | 0.00 | 0.00 | 72 | 1010.9 |
| 20260506192441 | 40 | 106 | 2.6 | 6.1 | 0.00 | 0.00 | 0.00 | 72 | 1010.7 |
| 20260506191938 | 40 | 131 | 4.3 | 5.2 | 0.00 | 0.00 | 0.00 | 72 | 1010.8 |
| 20260506191434 | 40 | 134 | 2.6 | 3.5 | 0.00 | 0.00 | 0.00 | 72 | 1010.8 |
| 20260506190931 | 40 | 178 | 3.5 | 7.0 | 0.00 | 0.00 | 0.00 | 72 | 1010.7 |
| 20260506190427 | 40 | 136 | 3.5 | 6.1 | 0.00 | 0.00 | 0.00 | 71 | 1010.7 |
| 20260506185925 | 41 | 85 | 2.6 | 5.2 | 0.00 | 0.00 | 0.00 | 71 | 1010.6 |
| 20260506185422 | 41 | 176 | 1.7 | 6.1 | 0.00 | 0.00 | 0.00 | 70 | 1010.5 |
| 20260506184919 | 41 | 104 | 1.7 | 3.5 | 0.00 | 0.00 | 0.00 | 69 | 1010.6 |
| 20260506184415 | 41 | 125 | 0.9 | 6.1 | 0.00 | 0.00 | 0.00 | 69 | 1010.6 |
| 20260506183913 | 41 | 155 | 3.5 | 8.7 | 0.00 | 0.00 | 0.00 | 69 | 1010.3 |
| 20260506183408 | 41 | 116 | 2.6 | 6.1 | 0.00 | 0.00 | 0.00 | 70 | 1010.6 |
| 20260506182905 | 42 | 134 | 3.5 | 5.2 | 0.00 | 0.00 | 0.00 | 69 | 1010.4 |
| 20260506182402 | 42 | 127 | 4.3 | 7.8 | 0.00 | 0.00 | 0.00 | 69 | 1010.5 |
| 20260506181859 | 42 | 126 | 3.5 | 6.1 | 0.00 | 0.00 | 0.00 | 68 | 1010.3 |
| 20260506181358 | 42 | 162 | 4.3 | 7.0 | 0.00 | 0.00 | 0.00 | 64 | 1010.6 |
| 20260506180854 | 42 | 174 | 3.5 | 7.0 | 0.00 | 0.00 | 0.00 | 65 | 1010.4 |
| 20260506180350 | 42 | 159 | 4.3 | 7.8 | 0.00 | 0.00 | 0.00 | 64 | 1010.5 |
| 20260506175847 | 42 | 149 | 4.3 | 7.0 | 0.00 | 0.00 | 0.00 | 65 | 1010.4 |
| 20260506175344 | 42 | 172 | 6.1 | 7.8 | 0.00 | 0.00 | 0.00 | 64 | 1010.3 |
| 20260506174841 | 42 | 162 | 7.8 | 8.7 | 0.00 | 0.00 | 0.00 | 64 | 1010.2 |
| 20260506174339 | 42 | 176 | 2.6 | 7.8 | 0.00 | 0.00 | 0.00 | 65 | 1010.4 |
| 20260506173836 | 42 | 142 | 4.3 | 8.7 | 0.00 | 0.00 | 0.00 | 65 | 1010.3 |
| 20260506173332 | 42 | 144 | 2.6 | 7.8 | 0.00 | 0.00 | 0.00 | 66 | 1010.4 |
| 20260506172830 | 42 | 148 | 6.1 | 7.8 | 0.00 | 0.00 | 0.00 | 66 | 1010.1 |
| 20260506172326 | 42 | 155 | 9.6 | 10.4 | 0.00 | 0.00 | 0.00 | 66 | 1010.3 |
| 20260506171824 | 43 | 152 | 5.2 | 8.7 | 0.00 | 0.00 | 0.00 | 66 | 1010.2 |
| 20260506171321 | 43 | 164 | 5.2 | 10.4 | 0.00 | 0.00 | 0.00 | 66 | 1010.3 |
| 20260506170819 | 43 | 162 | 5.2 | 9.6 | 0.00 | 0.00 | 0.00 | 66 | 1010.2 |
| 20260506170314 | 44 | 116 | 4.3 | 10.4 | 0.00 | 0.00 | 0.00 | 65 | 1010.1 |
| 20260506165814 | 44 | 157 | 5.2 | 11.3 | 0.00 | 0.00 | 0.00 | 62 | 1010.1 |
| 20260506165310 | 44 | 149 | 7.0 | 8.7 | 0.00 | 0.00 | 0.00 | 61 | 1010.1 |
| 20260506164807 | 43 | 144 | 4.3 | 6.1 | 0.00 | 0.00 | 0.00 | 63 | 1010.1 |
| 20260506164304 | 43 | 172 | 4.3 | 8.7 | 0.00 | 0.00 | 0.00 | 62 | 1010.0 |
| 20260506163800 | 43 | 161 | 7.0 | 8.7 | 0.00 | 0.00 | 0.00 | 61 | 1010.1 |
| 20260506163255 | 43 | 140 | 3.5 | 7.8 | 0.00 | 0.00 | 0.00 | 63 | 1009.9 |
| 20260506162751 | 43 | 167 | 7.8 | 9.6 | 0.00 | 0.00 | 0.00 | 61 | 1010.0 |
| 20260506162250 | 43 | 120 | 4.3 | 7.8 | 0.00 | 0.00 | 0.00 | 60 | 1009.9 |
| 20260506161747 | 44 | 137 | 5.2 | 9.6 | 0.00 | 0.00 | 0.00 | 60 | 1010.0 |
| 20260506161244 | 45 | 75 | 1.7 | 10.4 | 0.00 | 0.00 | 0.00 | 58 | 1010.0 |
| 20260506160741 | 46 | 145 | 5.2 | 8.7 | 0.00 | 0.00 | 0.00 | 57 | 1009.9 |
| 20260506160238 | 46 | 147 | 7.0 | 10.4 | 0.00 | 0.00 | 0.00 | 56 | 1009.9 |
| 20260506155737 | 46 | 157 | 3.5 | 7.8 | 0.00 | 0.00 | 0.00 | 56 | 1009.7 |
| 20260506155233 | 46 | 164 | 3.5 | 9.6 | 0.00 | 0.00 | 0.00 | 55 | 1009.8 |
| 20260506153340 | 46 | 310 | 2.6 | 5.2 | 0.00 | 0.00 | 0.00 | 55 | 1009.7 |
| 20260506152837 | 46 | 284 | 4.3 | 5.2 | 0.00 | 0.00 | 0.00 | 59 | 1009.5 |
| 20260506152334 | 47 | 271 | 2.6 | 7.0 | 0.00 | 0.00 | 0.00 | 56 | 1009.6 |
| 20260506151833 | 46 | 16 | 3.5 | 8.7 | 0.00 | 0.00 | 0.00 | 54 | 1009.7 |
| 20260506151329 | 46 | 296 | 5.2 | 7.0 | 0.00 | 0.00 | 0.00 | 55 | 1009.8 |
| 20260506150826 | 46 | 312 | 4.3 | 5.2 | 0.00 | 0.00 | 0.00 | 53 | 1009.8 |
| 20260506150323 | 46 | 20 | 2.6 | 4.3 | 0.00 | 0.00 | 0.00 | 54 | 1009.6 |
| 20260506145820 | 46 | 292 | 5.2 | 5.2 | 0.00 | 0.00 | 0.00 | 58 | 1009.6 |
| 20260506145316 | 46 | 305 | 5.2 | 6.1 | 0.00 | 0.00 | 0.00 | 56 | 1009.4 |
| 20260506144814 | 46 | 307 | 4.3 | 5.2 | 0.00 | 0.00 | 0.00 | 54 | 1009.6 |
| 20260506144310 | 46 | 304 | 6.1 | 7.0 | 0.00 | 0.00 | 0.00 | 57 | 1009.5 |
| 20260506143809 | 45 | 28 | 3.5 | 5.2 | 0.00 | 0.00 | 0.00 | 54 | 1009.3 |
| 20260506143305 | 45 | 338 | 0.9 | 4.3 | 0.00 | 0.00 | 0.00 | 55 | 1009.5 |
| 20260506142804 | 46 | 298 | 3.5 | 3.5 | 0.00 | 0.00 | 0.00 | 54 | 1009.6 |
| 20260506142301 | 46 | 294 | 3.5 | 3.5 | 0.00 | 0.00 | 0.00 | 54 | 1009.6 |
| 20260506141759 | 46 | 302 | 2.6 | 3.5 | 0.00 | 0.00 | 0.00 | 54 | 1009.6 |
| 20260506141258 | 46 | 333 | 1.7 | 5.2 | 0.00 | 0.00 | 0.00 | 52 | 1009.4 |
| 20260506140755 | 46 | 324 | 3.5 | 5.2 | 0.00 | 0.00 | 0.00 | 54 | 1009.5 |
| 20260506140252 | 47 | 286 | 3.5 | 5.2 | 0.00 | 0.00 | 0.00 | 55 | 1009.5 |
| 20260506135749 | 46 | 290 | 3.5 | 4.3 | 0.00 | 0.00 | 0.00 | 55 | 1009.4 |
| 20260506135245 | 46 | 279 | 3.5 | 6.1 | 0.00 | 0.00 | 0.00 | 54 | 1009.4 |
| 20260506134742 | 46 | 273 | 1.7 | 3.5 | 0.00 | 0.00 | 0.00 | 56 | 1009.4 |
| 20260506134238 | 46 | 307 | 3.5 | 4.3 | 0.00 | 0.00 | 0.00 | 54 | 1009.6 |
| 20260506133736 | 46 | 288 | 3.5 | 8.7 | 0.00 | 0.00 | 0.00 | 60 | 1009.3 |
| 20260506133232 | 46 | 24 | 5.2 | 6.1 | 0.00 | 0.00 | 0.00 | 57 | 1009.3 |
| 20260506132729 | 45 | 60 | 5.2 | 7.8 | 0.00 | 0.00 | 0.00 | 58 | 1009.3 |
| 20260506132226 | 44 | 31 | 4.3 | 8.7 | 0.00 | 0.00 | 0.00 | 56 | 1009.3 |
| 20260506131724 | 44 | 19 | 4.3 | 7.8 | 0.00 | 0.00 | 0.00 | 59 | 1009.4 |
| 20260506131220 | 43 | 55 | 6.1 | 8.7 | 0.00 | 0.00 | 0.00 | 61 | 1009.2 |
| 20260506130717 | 44 | 44 | 4.3 | 5.2 | 0.00 | 0.00 | 0.00 | 63 | 1009.2 |
| 20260506130214 | 44 | 23 | 8.7 | 9.6 | 0.02 | 0.00 | 0.00 | 62 | 1009.4 |
| 20260506125712 | 43 | 2 | 4.3 | 8.7 | 0.02 | 0.00 | 0.00 | 63 | 1009.4 |
| 20260506125209 | 43 | 333 | 6.1 | 13.0 | 0.00 | 0.00 | 0.00 | 60 | 1009.3 |
| 20260506124707 | 43 | 334 | 3.5 | 7.0 | 0.00 | 0.00 | 0.00 | 59 | 1009.3 |
| 20260506124205 | 43 | 328 | 5.2 | 9.6 | 0.00 | 0.00 | 0.00 | 56 | 1009.1 |
| 20260506123702 | 43 | 325 | 5.2 | 5.2 | 0.00 | 0.00 | 0.00 | 56 | 1009.1 |
| 20260506123201 | 43 | 321 | 5.2 | 7.8 | 0.00 | 0.00 | 0.00 | 57 | 1009.1 |
| 20260506122657 | 43 | 314 | 5.2 | 6.1 | 0.00 | 0.00 | 0.00 | 62 | 1009.0 |
| 20260506122155 | 43 | 292 | 2.6 | 3.5 | 0.00 | 0.00 | 0.00 | 61 | 1009.2 |
| 20260506121652 | 43 | 309 | 4.3 | 5.2 | 0.00 | 0.00 | 0.00 | 60 | 1009.1 |
| 20260506121148 | 43 | 324 | 3.5 | 5.2 | 0.00 | 0.00 | 0.00 | 62 | 1009.0 |
| 20260506120647 | 43 | 327 | 2.6 | 3.5 | 0.00 | 0.00 | 0.00 | 61 | 1008.9 |
| 20260506120143 | 43 | 309 | 4.3 | 5.2 | 0.00 | 0.00 | 0.00 | 62 | 1009.1 |
| 20260506115642 | 43 | 323 | 4.3 | 5.2 | 0.00 | 0.00 | 0.00 | 62 | 1008.8 |
| 20260506115140 | 43 | 309 | 2.6 | 5.2 | 0.00 | 0.00 | 0.00 | 63 | 1008.7 |
| 20260506114637 | 43 | 316 | 5.2 | 5.2 | 0.00 | 0.00 | 0.00 | 66 | 1008.7 |
| 20260506114135 | 43 | 272 | 2.6 | 6.1 | 0.00 | 0.00 | 0.00 | 63 | 1008.7 |
| 20260506113633 | 43 | 8 | 1.7 | 5.2 | 0.00 | 0.00 | 0.00 | 66 | 1008.7 |
| 20260506113130 | 44 | 317 | 3.5 | 5.2 | 0.00 | 0.00 | 0.00 | 65 | 1008.6 |
| 20260506112626 | 43 | 317 | 5.2 | 7.8 | 0.00 | 0.00 | 0.00 | 66 | 1008.6 |
| 20260506112124 | 42 | 303 | 4.3 | 6.1 | 0.00 | 0.00 | 0.00 | 68 | 1008.5 |
| 20260506111621 | 42 | 321 | 3.5 | 7.0 | 0.00 | 0.00 | 0.00 | 67 | 1008.7 |
| 20260506111119 | 42 | 338 | 2.6 | 4.3 | 0.00 | 0.00 | 0.00 | 68 | 1008.5 |
| 20260506110616 | 42 | 310 | 0.9 | 1.7 | 0.00 | 0.00 | 0.00 | 66 | 1008.5 |
| 20260506110113 | 43 | 331 | 0.0 | 4.3 | 0.00 | 0.00 | 0.00 | 67 | 1008.4 |
| 20260506105609 | 43 | 291 | 3.5 | 6.1 | 0.00 | 0.00 | 0.00 | 67 | 1008.5 |
| 20260506105107 | 42 | 10 | 2.6 | 5.2 | 0.00 | 0.00 | 0.00 | 71 | 1008.6 |
| 20260506104605 | 42 | 320 | 4.3 | 7.0 | 0.00 | 0.00 | 0.00 | 71 | 1008.5 |
| 20260506104102 | 42 | 307 | 6.1 | 7.8 | 0.00 | 0.00 | 0.00 | 72 | 1008.5 |
| 20260506103559 | 42 | 357 | 2.6 | 7.8 | 0.00 | 0.00 | 0.00 | 72 | 1008.5 |
| 20260506103056 | 41 | 299 | 5.2 | 8.7 | 0.00 | 0.00 | 0.00 | 75 | 1008.2 |
| 20260506102554 | 42 | 312 | 6.1 | 8.7 | 0.00 | 0.00 | 0.00 | 72 | 1008.4 |
| 20260506102051 | 42 | 310 | 3.5 | 7.8 | 0.00 | 0.00 | 0.00 | 74 | 1008.1 |
| 20260506101548 | 41 | 298 | 6.1 | 9.6 | 0.00 | 0.00 | 0.00 | 73 | 1008.4 |
| 20260506101045 | 41 | 306 | 7.8 | 10.4 | 0.00 | 0.00 | 0.00 | 75 | 1008.1 |
| 20260506100543 | 41 | 301 | 7.0 | 10.4 | 0.00 | 0.00 | 0.00 | 76 | 1008.2 |
| 20260506100041 | 41 | 291 | 6.1 | 9.6 | 0.00 | 0.00 | 0.00 | 76 | 1008.2 |
| 20260506095540 | 41 | 284 | 6.1 | 10.4 | 0.00 | 0.00 | 0.00 | 77 | 1008.2 |
| 20260506095035 | 41 | 290 | 7.0 | 10.4 | 0.00 | 0.00 | 0.00 | 75 | 1008.0 |
| 20260506094533 | 41 | 278 | 6.1 | 9.6 | 0.00 | 0.00 | 0.00 | 74 | 1008.1 |
| 20260506094031 | 40 | 276 | 6.1 | 10.4 | 0.00 | 0.00 | 0.00 | 77 | 1008.0 |
| 20260506093529 | 40 | 271 | 5.2 | 11.3 | 0.00 | 0.00 | 0.00 | 74 | 1008.0 |
| 20260506093026 | 40 | 287 | 5.2 | 12.2 | 0.00 | 0.00 | 0.00 | 76 | 1008.0 |
| 20260506092524 | 40 | 282 | 12.2 | 13.9 | 0.00 | 0.00 | 0.00 | 78 | 1007.9 |
| 20260506092020 | 40 | 267 | 12.2 | 13.0 | 0.00 | 0.00 | 0.00 | 77 | 1007.9 |
| 20260506091519 | 40 | 280 | 10.4 | 16.5 | 0.00 | 0.00 | 0.00 | 77 | 1007.7 |
| 20260506091016 | 41 | 289 | 9.6 | 15.6 | 0.00 | 0.00 | 0.00 | 79 | 1007.8 |
| 20260506090514 | 41 | 277 | 14.8 | 17.4 | 0.00 | 0.00 | 0.00 | 76 | 1007.6 |
| 20260506090010 | 43 | 290 | 9.6 | 13.0 | 0.00 | 0.00 | 0.00 | 75 | 1007.7 |
| 20260506085507 | 43 | 290 | 2.6 | 3.5 | 0.00 | 0.00 | 0.00 | 63 | 1007.4 |
| 20260506085003 | 43 | 322 | 3.5 | 3.5 | 0.00 | 0.00 | 0.00 | 64 | 1007.4 |
| 20260506084500 | 42 | 315 | 2.6 | 3.5 | 0.00 | 0.00 | 0.00 | 65 | 1007.4 |
| 20260506083956 | 41 | 255 | 2.6 | 4.3 | 0.00 | 0.00 | 0.00 | 70 | 1007.4 |
| 20260506083454 | 42 | 303 | 2.6 | 4.3 | 0.00 | 0.00 | 0.00 | 69 | 1007.3 |
| 20260506082951 | 42 | 284 | 1.7 | 4.3 | 0.00 | 0.00 | 0.00 | 69 | 1007.4 |
| 20260506082448 | 42 | 314 | 3.5 | 4.3 | 0.00 | 0.00 | 0.00 | 71 | 1007.3 |
| 20260506081943 | 41 | 313 | 3.5 | 4.3 | 0.00 | 0.00 | 0.00 | 69 | 1007.2 |
| 20260506081442 | 43 | 293 | 2.6 | 3.5 | 0.00 | 0.00 | 0.00 | 68 | 1007.1 |
| 20260506080939 | 43 | 293 | 2.6 | 3.5 | 0.00 | 0.00 | 0.00 | 68 | 1007.1 |
| 20260506080436 | 43 | 316 | 1.7 | 2.6 | 0.00 | 0.00 | 0.00 | 68 | 1007.1 |
| 20260506073420 | 41 | 318 | 0.9 | 1.7 | 0.00 | 0.00 | 0.00 | 73 | 1006.9 |
| 20260506072917 | 40 | 47 | 0.9 | 1.7 | 0.00 | 0.00 | 0.00 | 79 | 1006.9 |
| 20260506072414 | 40 | 79 | 0.0 | 1.7 | 0.00 | 0.00 | 0.00 | 77 | 1006.9 |
| 20260506071912 | 40 | 50 | 0.0 | 1.7 | 0.00 | 0.00 | 0.00 | 78 | 1006.8 |
| 20260506071410 | 39 | 331 | 0.0 | 0.9 | 0.00 | 0.00 | 0.00 | 77 | 1006.7 |
| 20260506070906 | 39 | 328 | 0.0 | 1.7 | 0.00 | 0.00 | 0.00 | 77 | 1006.8 |
| 20260506070403 | 39 | 25 | 0.0 | 1.7 | 0.00 | 0.00 | 0.00 | 79 | 1006.8 |
| 20260506062340 | 39 | 337 | 0.9 | 1.7 | 0.00 | 0.00 | 0.00 | 82 | 1006.4 |
| 20260506061836 | 39 | 317 | 0.0 | 1.7 | 0.00 | 0.00 | 0.00 | 82 | 1006.5 |
| 20260506061333 | 39 | 32 | 1.7 | 1.7 | 0.00 | 0.00 | 0.00 | 83 | 1006.4 |
| 20260506060831 | 38 | 112 | 0.9 | 2.6 | 0.00 | 0.00 | 0.00 | 83 | 1006.4 |
| 20260506060329 | 38 | 49 | 1.7 | 1.7 | 0.00 | 0.00 | 0.00 | 83 | 1006.1 |
| 20260506051300 | 39 | 101 | 1.7 | 1.7 | 0.00 | 0.00 | 0.00 | 84 | 1006.2 |
| 20260506050759 | 39 | 51 | 0.0 | 2.6 | 0.00 | 0.00 | 0.00 | 81 | 1006.0 |
| 20260506050256 | 39 | 49 | 1.7 | 3.5 | 0.00 | 0.00 | 0.00 | 85 | 1006.1 |
| 20260506044746 | 37 | 63 | 3.5 | 3.5 | 0.00 | 0.00 | 0.00 | 91 | 1006.0 |
| 20260506044244 | 36 | 50 | 3.5 | 3.5 | 0.00 | 0.00 | 0.00 | 93 | 1006.1 |
| 20260506043741 | 36 | 45 | 1.7 | 1.7 | 0.00 | 0.00 | 0.00 | 92 | 1006.0 |
| 20260506043238 | 35 | 48 | 1.7 | 2.6 | 0.00 | 0.00 | 0.00 | 92 | 1006.1 |
| 20260506042737 | 35 | 60 | 2.6 | 3.5 | 0.00 | 0.00 | 0.00 | 92 | 1005.9 |
| 20260506042235 | 36 | 58 | 2.6 | 3.5 | 0.00 | 0.00 | 0.00 | 93 | 1005.8 |
| 20260506041733 | 35 | 72 | 2.6 | 2.6 | 0.00 | 0.00 | 0.00 | 94 | 1005.8 |
| 20260506041230 | 35 | 83 | 1.7 | 2.6 | 0.00 | 0.00 | 0.00 | 95 | 1005.7 |
| 20260506040727 | 35 | 64 | 1.7 | 2.6 | 0.00 | 0.00 | 0.00 | 95 | 1005.6 |
| 20260506040224 | 35 | 67 | 3.5 | 4.3 | 0.00 | 0.00 | 0.00 | 96 | 1005.6 |
| 20260506035721 | 34 | 78 | 3.5 | 3.5 | 0.00 | 0.00 | 0.00 | 96 | 1005.5 |
| 20260506035218 | 33 | 85 | 2.6 | 5.2 | 0.00 | 0.00 | 0.00 | 96 | 1005.5 |
| 20260506034714 | 33 | 68 | 4.3 | 5.2 | 0.00 | 0.00 | 0.00 | 96 | 1005.6 |
| 20260506034212 | 33 | 79 | 4.3 | 5.2 | 0.00 | 0.00 | 0.00 | 96 | 1005.5 |
| 20260506033709 | 33 | 78 | 3.5 | 4.3 | 0.00 | 0.00 | 0.00 | 96 | 1005.6 |
| 20260506033206 | 33 | 78 | 3.5 | 4.3 | 0.00 | 0.00 | 0.00 | 96 | 1005.4 |
| 20260506032703 | 33 | 73 | 5.2 | 6.1 | 0.00 | 0.00 | 0.00 | 96 | 1005.4 |
| 20260506032200 | 33 | 68 | 5.2 | 6.1 | 0.00 | 0.00 | 0.00 | 96 | 1005.4 |
| 20260506031657 | 33 | 66 | 6.1 | 6.1 | 0.00 | 0.00 | 0.00 | 96 | 1005.3 |
| 20260506031154 | 33 | 64 | 5.2 | 6.1 | 0.00 | 0.00 | 0.00 | 96 | 1005.2 |
| 20260506030652 | 34 | 63 | 5.2 | 5.2 | 0.00 | 0.00 | 0.00 | 96 | 1005.4 |
| 20260506030149 | 34 | 55 | 4.3 | 4.3 | 0.00 | 0.00 | 0.00 | 96 | 1005.2 |
| 20260506025646 | 34 | 72 | 2.6 | 2.6 | 0.00 | 0.00 | 0.00 | 96 | 1004.9 |
| 20260506025142 | 34 | 69 | 2.6 | 2.6 | 0.00 | 0.00 | 0.00 | 96 | 1005.1 |
| 20260506024640 | 34 | 84 | 2.6 | 3.5 | 0.00 | 0.00 | 0.00 | 96 | 1005.0 |
| 20260506024136 | 34 | 92 | 3.5 | 3.5 | 0.00 | 0.00 | 0.00 | 96 | 1005.0 |
| 20260506023632 | 34 | 82 | 2.6 | 3.5 | 0.00 | 0.00 | 0.00 | 96 | 1005.2 |
| 20260506023129 | 34 | 73 | 2.6 | 3.5 | 0.00 | 0.00 | 0.00 | 96 | 1005.3 |
| 20260506022627 | 34 | 79 | 3.5 | 3.5 | 0.00 | 0.00 | 0.00 | 96 | 1005.2 |
| 20260506022124 | 34 | 76 | 3.5 | 4.3 | 0.00 | 0.00 | 0.00 | 96 | 1005.0 |
| 20260506021622 | 34 | 77 | 3.5 | 4.3 | 0.00 | 0.00 | 0.00 | 96 | 1004.9 |
| 20260506021119 | 34 | 79 | 2.6 | 3.5 | 0.00 | 0.00 | 0.00 | 96 | 1005.0 |
| 20260506020616 | 34 | 69 | 3.5 | 3.5 | 0.00 | 0.00 | 0.00 | 95 | 1005.0 |
| 20260506020113 | 34 | 72 | 3.5 | 3.5 | 0.00 | 0.00 | 0.00 | 95 | 1004.8 |
| 20260506015611 | 35 | 69 | 3.5 | 3.5 | 0.00 | 0.00 | 0.00 | 95 | 1004.7 |
| 20260506015107 | 35 | 76 | 3.5 | 5.2 | 0.00 | 0.00 | 0.00 | 95 | 1004.8 |
| 20260506014605 | 35 | 77 | 4.3 | 4.3 | 0.00 | 0.00 | 0.00 | 95 | 1004.9 |
| 20260506014100 | 35 | 71 | 4.3 | 5.2 | 0.00 | 0.00 | 0.00 | 95 | 1004.6 |
| 20260506013559 | 35 | 56 | 5.2 | 5.2 | 0.00 | 0.00 | 0.00 | 95 | 1004.8 |
| 20260506013055 | 35 | 54 | 4.3 | 5.2 | 0.00 | 0.00 | 0.00 | 95 | 1004.8 |
| 20260506012551 | 35 | 71 | 3.5 | 4.3 | 0.00 | 0.00 | 0.00 | 94 | 1004.7 |
| 20260506012048 | 35 | 64 | 3.5 | 4.3 | 0.00 | 0.00 | 0.00 | 94 | 1004.7 |
| 20260506011546 | 35 | 84 | 3.5 | 3.5 | 0.00 | 0.00 | 0.00 | 94 | 1004.5 |
| 20260506011042 | 35 | 85 | 2.6 | 3.5 | 0.00 | 0.00 | 0.00 | 94 | 1004.6 |
| 20260506010542 | 35 | 55 | 2.6 | 3.5 | 0.00 | 0.00 | 0.00 | 94 | 1004.5 |
| 20260506010038 | 35 | 69 | 2.6 | 2.6 | 0.00 | 0.00 | 0.00 | 94 | 1004.5 |
| 20260506005535 | 35 | 92 | 2.6 | 3.5 | 0.00 | 0.00 | 0.00 | 94 | 1004.7 |
| 20260506005031 | 35 | 63 | 1.7 | 2.6 | 0.00 | 0.00 | 0.00 | 94 | 1004.4 |
| 20260506004528 | 35 | 65 | 3.5 | 4.3 | 0.00 | 0.00 | 0.00 | 94 | 1004.6 |
| 20260506004025 | 35 | 60 | 3.5 | 3.5 | 0.00 | 0.00 | 0.00 | 94 | 1004.6 |
| 20260506003521 | 35 | 43 | 2.6 | 2.6 | 0.00 | 0.00 | 0.00 | 94 | 1004.3 |
| 20260506003017 | 35 | 45 | 0.0 | 2.6 | 0.00 | 0.00 | 0.00 | 94 | 1004.5 |
| 20260506002514 | 35 | 78 | 1.7 | 2.6 | 0.00 | 0.00 | 0.00 | 94 | 1004.5 |
| 20260506002009 | 35 | 83 | 1.7 | 2.6 | 0.00 | 0.00 | 0.00 | 94 | 1004.2 |
| 20260506001506 | 35 | 74 | 1.7 | 3.5 | 0.00 | 0.00 | 0.00 | 94 | 1004.5 |
| 20260506001004 | 35 | 84 | 3.5 | 3.5 | 0.00 | 0.00 | 0.00 | 94 | 1004.5 |
| 20260506000501 | 35 | 64 | 3.5 | 5.2 | 0.00 | 0.00 | 0.00 | 94 | 1004.2 |
| 20260505235957 | 35 | 71 | 3.5 | 3.5 | 0.00 | 0.00 | 0.00 | 94 | 1004.3 |
| 20260505235456 | 35 | 71 | 3.5 | 3.5 | 0.00 | 0.00 | 0.00 | 94 | 1004.3 |
| 20260505234952 | 35 | 77 | 3.5 | 3.5 | 0.00 | 0.00 | 0.00 | 94 | 1004.0 |
| 20260505234450 | 35 | 59 | 3.5 | 3.5 | 0.00 | 0.00 | 0.00 | 94 | 1004.2 |
| 20260505233946 | 35 | 74 | 2.6 | 3.5 | 0.00 | 0.00 | 0.00 | 93 | 1004.1 |
| 20260505233444 | 35 | 69 | 4.3 | 5.2 | 0.00 | 0.00 | 0.00 | 93 | 1003.9 |
| 20260505232941 | 35 | 74 | 3.5 | 5.2 | 0.00 | 0.00 | 0.00 | 93 | 1004.1 |
| 20260505232439 | 35 | 68 | 5.2 | 6.1 | 0.00 | 0.00 | 0.00 | 93 | 1004.0 |
| 20260505231936 | 35 | 75 | 4.3 | 6.1 | 0.00 | 0.00 | 0.00 | 93 | 1004.0 |
| 20260505231433 | 35 | 70 | 3.5 | 5.2 | 0.00 | 0.00 | 0.00 | 92 | 1004.1 |
| 20260505230931 | 36 | 73 | 3.5 | 4.3 | 0.00 | 0.00 | 0.00 | 92 | 1003.9 |
| 20260505230429 | 36 | 77 | 4.3 | 5.2 | 0.00 | 0.00 | 0.00 | 92 | 1003.9 |
| 20260505225925 | 36 | 71 | 5.2 | 6.1 | 0.00 | 0.00 | 0.00 | 92 | 1004.1 |
| 20260505225422 | 36 | 64 | 5.2 | 6.1 | 0.00 | 0.00 | 0.00 | 92 | 1003.9 |
| 20260505224917 | 36 | 81 | 2.6 | 4.3 | 0.00 | 0.00 | 0.00 | 92 | 1004.0 |
| 20260505224415 | 36 | 71 | 5.2 | 5.2 | 0.00 | 0.00 | 0.00 | 91 | 1003.9 |
| 20260505223912 | 37 | 78 | 3.5 | 5.2 | 0.00 | 0.00 | 0.00 | 91 | 1003.9 |
| 20260505223409 | 37 | 80 | 3.5 | 5.2 | 0.00 | 0.00 | 0.00 | 90 | 1003.9 |
| 20260505222905 | 37 | 70 | 3.5 | 5.2 | 0.00 | 0.00 | 0.00 | 89 | 1003.9 |
| 20260505222401 | 37 | 70 | 5.2 | 6.1 | 0.00 | 0.00 | 0.00 | 88 | 1003.8 |
| 20260505221858 | 37 | 52 | 3.5 | 3.5 | 0.00 | 0.00 | 0.00 | 87 | 1003.9 |
| 20260505221355 | 38 | 47 | 3.5 | 4.3 | 0.00 | 0.00 | 0.00 | 85 | 1003.7 |
| 20260505220852 | 38 | 38 | 1.7 | 2.6 | 0.00 | 0.00 | 0.00 | 83 | 1003.5 |
| 20260505220349 | 38 | 20 | 3.5 | 5.2 | 0.00 | 0.00 | 0.00 | 83 | 1003.7 |
| 20260505215847 | 38 | 77 | 1.7 | 2.6 | 0.00 | 0.01 | 0.01 | 82 | 1003.7 |
| 20260505215345 | 38 | 106 | 2.6 | 3.5 | 0.00 | 0.01 | 0.01 | 82 | 1003.6 |
| 20260505214843 | 38 | 96 | 1.7 | 3.5 | 0.00 | 0.01 | 0.01 | 82 | 1003.6 |
| 20260505214340 | 38 | 269 | 0.0 | 1.7 | 0.00 | 0.01 | 0.01 | 81 | 1003.7 |
| 20260505213837 | 39 | 262 | 0.0 | 5.2 | 0.00 | 0.01 | 0.01 | 82 | 1003.5 |
| 20260505213335 | 39 | 94 | 1.7 | 1.7 | 0.00 | 0.01 | 0.01 | 81 | 1003.6 |
| 20260505212830 | 39 | 84 | 0.9 | 5.2 | 0.00 | 0.01 | 0.01 | 81 | 1003.4 |
| 20260505212328 | 39 | 112 | 2.6 | 2.6 | 0.00 | 0.01 | 0.01 | 81 | 1003.5 |
| 20260505211824 | 39 | 112 | 0.0 | 2.6 | 0.00 | 0.01 | 0.01 | 81 | 1003.4 |
| 20260505211322 | 39 | 115 | 3.5 | 4.3 | 0.00 | 0.01 | 0.01 | 81 | 1003.4 |
| 20260505210818 | 39 | 117 | 2.6 | 3.5 | 0.00 | 0.01 | 0.01 | 80 | 1003.4 |
| 20260505210315 | 39 | 93 | 1.7 | 5.2 | 0.00 | 0.01 | 0.01 | 78 | 1003.3 |
| 20260505205812 | 39 | 121 | 2.6 | 4.3 | 0.00 | 0.01 | 0.01 | 78 | 1003.4 |
| 20260505205310 | 39 | 341 | 0.9 | 3.5 | 0.00 | 0.01 | 0.01 | 78 | 1003.3 |
| 20260505204806 | 39 | 102 | 4.3 | 4.3 | 0.00 | 0.01 | 0.01 | 78 | 1003.2 |
| 20260505204304 | 39 | 91 | 2.6 | 4.3 | 0.00 | 0.01 | 0.01 | 78 | 1003.1 |
| 20260505203801 | 39 | 95 | 2.6 | 3.5 | 0.00 | 0.01 | 0.01 | 78 | 1003.0 |
| 20260505203258 | 39 | 104 | 2.6 | 4.3 | 0.00 | 0.01 | 0.01 | 78 | 1003.0 |
| 20260505202754 | 39 | 91 | 4.3 | 6.1 | 0.00 | 0.01 | 0.01 | 78 | 1003.1 |
| 20260505202250 | 39 | 107 | 3.5 | 5.2 | 0.00 | 0.01 | 0.01 | 78 | 1002.9 |
| 20260505201747 | 39 | 89 | 3.5 | 4.3 | 0.00 | 0.01 | 0.01 | 78 | 1002.9 |